Location: Carrer del Canonge
(41.4901°N, 2.2931°E)
Time: 18:46:15
(UTC+00:00)

X-37B - Visible Passes

Search period start: 25 November 2020 00:00
Search period end: 05 December 2020 00:00
Orbit: 384 x 389 km, 45.0° (Epoch: 12 November)

Date Brightness Start Highest point End Pass type
(mag) Time Alt. Az. Time Alt. Az. Time Alt. Az.
25 Nov 2.9 18:26:27 10° SSW 18:27:38 18° SSW 18:27:38 18° SSW visible
26 Nov 2.6 17:28:47 10° S 17:30:51 16° SE 17:31:54 14° ESE visible
26 Nov 4.0 19:03:57 10° WSW 19:04:11 12° WSW 19:04:11 12° WSW visible
27 Nov 1.0 18:05:30 10° SW 18:08:23 49° SSE 18:08:23 49° SSE visible
28 Nov 1.9 17:07:19 10° SSW 17:10:07 28° SSE 17:12:32 12° E visible
28 Nov 3.1 18:43:26 10° W 18:44:49 23° W 18:44:49 23° W visible
29 Nov 0.5 17:44:49 10° WSW 17:48:00 85° SSE 17:48:55 43° ENE visible
30 Nov 2.0 18:23:01 10° W 18:25:15 36° WNW 18:25:15 36° WNW visible
01 Dec 0.7 17:24:18 10° W 17:27:28 64° NNW 17:29:18 22° ENE visible
01 Dec 4.0 19:01:19 10° WNW 19:01:34 12° WNW 19:01:34 12° WNW visible
02 Dec 1.3 18:02:38 10° WNW 18:05:36 42° N 18:05:36 42° N visible
03 Dec 1.1 17:03:53 10° W 17:06:59 48° N 17:09:39 13° ENE visible
03 Dec 3.2 18:40:50 10° WNW 18:41:55 19° WNW 18:41:55 19° WNW visible
04 Dec 1.2 17:42:11 10° WNW 17:45:13 41° N 17:46:00 34° NE visible
